Time[GMT],dominant_wave_period[s](0m),mean_wave_direction[degrees](0m),max_wave_height[m](0m),significant_wave_height[m](0m),mean_wave_direction_spread[degrees](0m)
2014-05-09 19:00,6.9,102.40,1.62,1.04,
2014-05-09 20:00,6.9,102.40,1.49,1.02,
2014-05-09 21:00,6.3,99.40,1.53,0.96,
2014-05-09 22:00,6.7,103.40,1.60,0.97,
2014-05-09 23:00,6.9,98.40,1.52,0.97,
2014-05-10 00:00,7.1,97.40,2.11,1.05,
2014-05-10 01:00,5.6,94.40,2.10,1.29,
2014-05-10 02:00,5.4,98.40,2.09,1.26,
2014-05-10 03:00,6.9,95.40,1.85,1.18,
2014-05-10 04:00,5.4,99.40,2.24,1.18,
2014-05-10 05:00,6.7,95.40,1.80,1.16,
2014-05-10 06:00,6.5,93.40,1.94,1.06,
2014-05-10 07:00,6.9,92.40,1.80,1.06,
2014-05-10 08:00,6.9,89.40,2.03,1.15,
2014-05-10 09:00,6.3,94.40,1.98,1.15,
2014-05-10 10:00,,339.96,,,
2014-05-10 11:00,5.4,96.40,2.11,1.36,
2014-05-10 12:00,6.9,94.40,2.03,1.24,
2014-05-10 13:00,6.5,94.40,1.78,1.13,
2014-05-10 14:00,6.9,98.40,1.98,1.16,
2014-05-10 15:00,6.5,96.40,1.70,1.13,
2014-05-10 16:00,6.3,91.40,2.36,1.39,
2014-05-10 17:00,6.9,91.40,2.57,1.46,
2014-05-10 18:00,7.1,85.40,2.59,1.42,
2014-05-10 19:00,6.7,89.40,2.64,1.38,
2014-05-10 20:00,6.7,85.40,1.87,1.25,
2014-05-10 21:00,6.5,86.40,1.86,1.14,
2014-05-10 22:00,7.4,87.40,2.08,1.11,
2014-05-10 23:00,6.1,85.40,2.31,1.47,
2014-05-11 00:00,6.9,93.40,2.29,1.48,
2014-05-11 01:00,5.9,94.40,3.16,1.52,
2014-05-11 02:00,7.1,97.40,2.61,1.71,
2014-05-11 03:00,6.3,95.40,2.66,1.54,
2014-05-11 04:00,7.4,94.40,3.11,1.62,
2014-05-11 05:00,7.1,94.40,2.71,1.62,
2014-05-11 06:00,6.3,93.40,2.19,1.50,
2014-05-11 07:00,7.1,94.40,3.12,1.70,
2014-05-11 08:00,6.5,98.40,2.41,1.38,
2014-05-11 09:00,6.5,99.40,2.08,1.21,
2014-05-11 10:00,7.1,106.40,2.11,1.27,
2014-05-11 11:00,7.4,108.40,1.89,1.23,
2014-05-11 12:00,7.1,106.40,2.28,1.29,
2014-05-11 13:00,6.9,104.40,2.30,1.33,
2014-05-11 14:00,6.3,107.40,2.14,1.26,
2014-05-11 15:00,6.9,105.40,2.01,1.26,
2014-05-11 16:00,7.7,106.40,1.93,1.21,
2014-05-11 17:00,5.1,108.40,1.58,1.11,
2014-05-11 18:00,5.7,105.40,1.82,1.20,
2014-05-11 19:00,7.1,104.40,2.18,1.10,
2014-05-11 20:00,5.9,105.40,1.79,1.13,
2014-05-11 21:00,5.6,103.40,2.08,1.11,
2014-05-11 22:00,28.6,103.40,1.75,1.17,
2014-05-11 23:00,4.0,101.40,2.05,1.28,
2014-05-12 00:00,4.3,108.40,2.38,1.44,
2014-05-12 01:00,5.9,112.40,2.31,1.37,
2014-05-12 02:00,5.1,111.40,2.41,1.48,
2014-05-12 03:00,5.6,106.40,2.43,1.56,
2014-05-12 04:00,5.4,109.40,2.90,1.47,
2014-05-12 05:00,5.6,115.40,2.55,1.55,
2014-05-12 06:00,5.9,116.40,2.82,1.76,
2014-05-12 07:00,5.9,116.40,2.59,1.56,
2014-05-12 08:00,5.9,104.40,2.24,1.48,
2014-05-12 09:00,4.7,101.40,1.97,1.31,
2014-05-12 10:00,7.4,104.40,2.19,1.43,
2014-05-12 11:00,7.1,103.40,2.25,1.39,
2014-05-12 12:00,6.7,110.40,2.40,1.51,
2014-05-12 13:00,6.1,109.40,2.52,1.58,
2014-05-12 14:00,6.7,110.40,2.83,1.54,
2014-05-12 15:00,6.3,109.40,2.17,1.37,
2014-05-12 16:00,6.9,111.40,2.27,1.48,
2014-05-12 17:00,6.5,111.40,2.29,1.35,
2014-05-12 18:00,6.5,111.40,2.35,1.41,
2014-05-12 19:00,5.9,109.40,2.47,1.49,
2014-05-12 20:00,6.3,107.40,2.49,1.51,
2014-05-12 21:00,6.5,105.40,3.25,1.61,
2014-05-12 22:00,6.1,107.40,2.56,1.62,
2014-05-12 23:00,6.3,106.40,2.41,1.54,
2014-05-13 00:00,6.3,101.40,2.35,1.70,
2014-05-13 01:00,6.5,101.40,2.82,1.81,
2014-05-13 02:00,6.3,101.40,3.34,2.15,
2014-05-13 03:00,6.3,102.40,2.83,1.88,
2014-05-13 04:00,6.7,105.40,2.26,1.66,
2014-05-13 05:00,6.7,107.40,2.96,1.76,
2014-05-13 06:00,6.7,102.40,2.74,1.56,
2014-05-13 07:00,6.3,103.40,2.04,1.43,
2014-05-13 08:00,6.3,102.40,2.10,1.28,
2014-05-13 09:00,8.0,106.40,1.88,1.15,
2014-05-13 10:00,8.0,110.40,1.69,1.11,
2014-05-13 11:00,7.7,105.40,1.85,1.14,
2014-05-13 12:00,6.3,106.40,1.73,1.03,
2014-05-13 13:00,8.3,106.40,2.06,1.12,
2014-05-13 14:00,8.0,111.40,1.85,1.16,
2014-05-13 15:00,5.4,107.40,2.53,1.22,
2014-05-13 16:00,6.1,106.40,2.10,1.11,
2014-05-13 17:00,5.7,108.40,1.76,1.17,
2014-05-13 18:00,8.3,108.40,2.17,1.19,
2014-05-13 19:00,5.9,107.40,1.84,1.14,
2014-05-13 20:00,5.9,105.40,2.18,1.29,
2014-05-13 21:00,5.7,98.40,2.38,1.35,
2014-05-13 22:00,6.1,104.40,2.20,1.38,
2014-05-13 23:00,5.9,103.40,2.68,1.36,
2014-05-14 00:00,6.1,101.40,1.94,1.36,
2014-05-14 01:00,5.7,104.40,1.84,1.20,
2014-05-14 02:00,5.9,99.40,2.04,1.37,
2014-05-14 03:00,6.1,102.40,2.10,1.25,
2014-05-14 04:00,6.5,101.40,2.00,1.31,
2014-05-14 05:00,6.7,101.40,2.23,1.47,
2014-05-14 06:00,5.9,102.40,1.86,1.41,
2014-05-14 07:00,6.3,99.40,2.56,1.36,
2014-05-14 08:00,6.5,101.40,2.17,1.36,
2014-05-14 09:00,6.5,100.40,2.51,1.33,
2014-05-14 10:00,5.9,99.40,2.44,1.47,
2014-05-14 11:00,6.3,99.40,2.23,1.43,
2014-05-14 12:00,5.6,101.40,2.10,1.47,
2014-05-14 13:00,5.7,107.40,2.35,1.50,
2014-05-14 14:00,6.5,102.40,2.30,1.30,
2014-05-14 15:00,5.9,105.40,1.91,1.17,
2014-05-14 16:00,5.3,105.40,1.95,1.14,
2014-05-14 17:00,5.7,100.40,1.72,1.14,
2014-05-14 18:00,6.3,100.40,2.14,1.15,
2014-05-14 19:00,5.6,101.40,1.91,1.21,
2014-05-14 20:00,5.7,100.40,2.16,1.10,
2014-05-14 21:00,5.9,101.40,1.69,1.09,
2014-05-14 22:00,6.5,100.40,1.66,1.09,
2014-05-14 23:00,5.7,97.40,2.06,1.08,
2014-05-15 00:00,5.7,96.40,1.54,1.02,
2014-05-15 01:00,6.3,99.40,1.78,1.13,
2014-05-15 02:00,5.7,96.40,1.88,1.07,
2014-05-15 03:00,6.1,99.40,1.85,1.10,
2014-05-15 04:00,4.0,94.40,2.07,1.08,
2014-05-15 05:00,5.7,102.40,1.81,1.06,
2014-05-15 06:00,5.3,99.40,1.72,1.00,
2014-05-15 07:00,5.6,96.40,2.27,1.04,
2014-05-15 08:00,5.7,99.40,1.84,1.11,
2014-05-15 09:00,6.1,102.40,2.14,1.17,
2014-05-15 10:00,5.6,97.40,2.22,1.16,
2014-05-15 11:00,5.4,103.40,1.86,1.14,
2014-05-15 12:00,5.7,100.40,1.96,1.24,
2014-05-15 13:00,5.4,99.40,2.08,1.31,
2014-05-15 14:00,5.9,100.40,1.75,1.22,
2014-05-15 15:00,6.1,102.40,2.36,1.26,
2014-05-15 16:00,5.9,104.40,1.92,1.09,
2014-05-15 17:00,6.3,103.40,1.79,1.09,
2014-05-15 18:00,6.1,99.40,1.63,1.01,
2014-05-15 19:00,6.7,99.40,1.71,1.04,
2014-05-15 20:00,7.4,93.40,1.66,1.08,
2014-05-15 21:00,5.7,90.40,1.91,1.12,
2014-05-15 22:00,5.7,95.40,1.74,1.19,
2014-05-15 23:00,6.7,96.40,2.01,1.15,
2014-05-16 00:00,5.4,93.40,1.65,1.13,
2014-05-16 01:00,5.9,100.40,1.71,1.10,
2014-05-16 02:00,5.6,97.40,1.82,1.06,
2014-05-16 03:00,5.7,98.40,1.53,1.06,
2014-05-16 04:00,6.3,102.40,1.68,1.02,
2014-05-16 05:00,5.7,98.40,1.54,1.05,
2014-05-16 06:00,6.1,96.40,1.83,1.05,
2014-05-16 07:00,7.7,93.40,2.00,1.13,
2014-05-16 08:00,6.5,95.40,1.75,1.12,
2014-05-16 09:00,5.3,100.40,1.68,1.09,
2014-05-16 10:00,5.4,95.40,1.62,1.02,
2014-05-16 11:00,5.9,96.40,2.01,1.08,
2014-05-16 12:00,5.0,96.40,1.90,1.11,
2014-05-16 13:00,6.1,96.40,1.78,1.05,
2014-05-16 14:00,5.4,99.40,1.71,1.06,
2014-05-16 15:00,5.4,95.40,1.68,1.11,
2014-05-16 16:00,5.9,99.40,1.61,1.00,
2014-05-16 17:00,6.1,95.40,1.46,0.91,
2014-05-16 18:00,5.7,99.40,1.60,0.93,
2014-05-16 19:00,5.7,97.40,1.59,0.86,
2014-05-16 20:00,5.6,99.40,1.26,0.88,
2014-05-16 21:00,5.3,98.40,1.55,0.88,
2014-05-16 22:00,5.7,96.40,1.42,0.88,
2014-05-16 23:00,5.7,95.40,1.56,0.92,
2014-05-17 00:00,5.4,99.40,1.88,1.01,
2014-05-17 01:00,6.7,96.40,1.59,1.02,
2014-05-17 02:00,5.7,96.40,1.67,1.00,
2014-05-17 03:00,5.4,98.40,1.78,1.01,
2014-05-17 04:00,5.9,97.40,1.45,0.98,
2014-05-17 05:00,5.7,102.40,1.51,0.98,
2014-05-17 06:00,6.5,94.40,1.44,0.90,
2014-05-17 07:00,5.4,99.40,1.46,0.94,
2014-05-17 08:00,5.7,102.40,1.68,0.93,
2014-05-17 09:00,5.7,98.40,1.56,0.94,
2014-05-17 10:00,5.3,97.40,1.79,0.95,
2014-05-17 11:00,6.1,100.40,1.62,0.91,
2014-05-17 12:00,6.7,99.40,1.81,0.91,
2014-05-17 13:00,5.6,95.40,1.60,0.96,
2014-05-17 14:00,5.9,98.40,1.39,0.91,
2014-05-17 15:00,5.6,98.40,1.35,0.89,
2014-05-17 16:00,5.9,99.40,1.71,0.88,
2014-05-17 17:00,5.4,99.40,1.42,0.84,
2014-05-17 18:00,4.7,100.40,1.29,0.81,
2014-05-17 19:00,5.3,100.40,1.30,0.80,
2014-05-17 20:00,5.1,103.40,1.20,0.76,
2014-05-17 21:00,5.3,101.40,1.45,0.77,
2014-05-17 22:00,5.4,103.40,1.28,0.73,
2014-05-17 23:00,5.6,101.40,1.28,0.73,
2014-05-18 00:00,5.1,102.40,1.24,0.74,
2014-05-18 01:00,5.1,100.40,1.23,0.71,
2014-05-18 02:00,5.6,97.40,1.23,0.75,
2014-05-18 03:00,5.6,101.40,1.24,0.72,
2014-05-18 04:00,4.3,100.40,1.18,0.74,
2014-05-18 05:00,5.3,99.40,1.32,0.71,
2014-05-18 06:00,5.9,101.40,1.18,0.67,
2014-05-18 07:00,8.3,98.40,1.04,0.72,
2014-05-18 08:00,7.1,100.40,1.15,0.73,
2014-05-18 09:00,5.1,101.40,1.10,0.71,
2014-05-18 10:00,5.4,99.40,1.13,0.76,
2014-05-18 11:00,4.9,99.40,1.34,0.73,
2014-05-18 12:00,4.9,99.40,1.39,0.78,
2014-05-18 13:00,4.9,104.40,1.16,0.80,
2014-05-18 14:00,5.3,100.40,1.48,0.77,
2014-05-18 15:00,4.9,104.40,1.14,0.82,
2014-05-18 16:00,4.9,106.40,1.22,0.82,
2014-05-18 17:00,4.9,109.40,1.45,0.86,
2014-05-18 18:00,5.0,106.40,1.40,0.85,
2014-05-18 19:00,5.1,103.40,1.59,0.80,
2014-05-18 20:00,5.0,106.40,1.21,0.77,
2014-05-18 21:00,5.3,101.40,1.35,0.82,
2014-05-18 22:00,5.3,101.40,1.31,0.84,
2014-05-18 23:00,5.7,102.40,1.19,0.78,
2014-05-19 00:00,4.8,103.40,1.65,0.80,
2014-05-19 01:00,5.1,99.40,1.42,0.84,
2014-05-19 02:00,4.9,96.40,1.24,0.83,
2014-05-19 03:00,4.8,99.40,1.30,0.86,
2014-05-19 04:00,4.9,99.40,1.49,0.91,
2014-05-19 05:00,3.9,94.40,1.51,0.94,
2014-05-19 06:00,4.7,97.40,1.42,0.92,
2014-05-19 07:00,4.7,95.40,1.78,0.90,
2014-05-19 08:00,4.8,99.40,1.64,0.88,
2014-05-19 09:00,5.3,100.40,1.62,0.99,
2014-05-19 10:00,5.3,102.40,1.47,1.01,
2014-05-19 11:00,5.6,99.40,2.00,1.06,
2014-05-19 12:00,5.6,96.40,1.44,0.95,
2014-05-19 13:00,5.7,102.40,1.75,1.06,
2014-05-19 14:00,5.6,102.40,1.76,1.01,
2014-05-19 15:00,5.7,105.40,1.92,1.20,
2014-05-19 16:00,5.9,101.40,1.78,1.19,
2014-05-19 17:00,5.6,104.40,1.89,1.15,
2014-05-19 18:00,5.9,106.40,1.92,1.12,
2014-05-19 19:00,5.9,106.40,1.91,1.16,
2014-05-19 20:00,6.1,107.40,1.71,1.08,
2014-05-19 21:00,5.7,115.40,1.84,1.09,
2014-05-19 22:00,5.7,113.40,1.66,1.00,
2014-05-19 23:00,5.7,109.40,1.87,0.96,
2014-05-20 00:00,5.6,109.40,2.20,0.97,
2014-05-20 01:00,5.6,105.40,1.59,0.94,
2014-05-20 02:00,5.7,106.40,1.53,0.97,
2014-05-20 03:00,5.6,108.40,1.55,1.00,
2014-05-20 04:00,5.4,102.40,1.82,1.05,
2014-05-20 05:00,5.6,105.40,1.65,1.09,
2014-05-20 06:00,5.6,106.40,1.67,1.08,
2014-05-20 07:00,5.3,110.40,2.04,1.03,
2014-05-20 08:00,5.4,111.40,1.69,1.10,
2014-05-20 09:00,5.6,114.40,1.83,1.17,
2014-05-20 10:00,5.3,114.40,1.82,1.18,
2014-05-20 11:00,6.1,118.40,2.19,1.17,
2014-05-20 12:00,6.1,115.40,1.77,1.17,
2014-05-20 13:00,5.9,117.40,2.20,1.15,
2014-05-20 14:00,6.1,120.40,2.25,1.18,
2014-05-20 15:00,6.3,118.40,1.80,1.07,
2014-05-20 16:00,6.7,120.40,1.88,1.10,
2014-05-20 17:00,5.7,118.40,1.89,1.02,
2014-05-20 18:00,5.9,120.40,1.72,1.07,
2014-05-20 19:00,6.5,114.40,1.73,1.04,
2014-05-20 20:00,6.3,117.40,1.55,0.95,
2014-05-20 21:00,5.9,114.40,1.64,0.89,
2014-05-20 22:00,6.3,117.40,1.53,0.89,
2014-05-20 23:00,5.9,114.40,1.30,0.81,
2014-05-21 00:00,5.9,111.40,1.45,0.85,
2014-05-21 01:00,5.7,109.40,1.13,0.78,
2014-05-21 02:00,5.4,109.40,1.25,0.82,
2014-05-21 03:00,5.7,108.40,1.65,0.83,
2014-05-21 04:00,5.9,107.40,1.33,0.82,
2014-05-21 05:00,5.3,107.40,1.38,0.84,
2014-05-21 06:00,6.1,114.40,1.38,0.78,
2014-05-21 07:00,5.4,114.40,1.26,0.86,
2014-05-21 08:00,4.2,111.40,1.52,0.88,
2014-05-21 09:00,5.7,110.40,1.50,0.80,
2014-05-21 10:00,5.9,113.40,1.22,0.79,
2014-05-21 11:00,5.4,111.40,1.30,0.79,
2014-05-21 12:00,5.7,119.40,1.28,0.86,
2014-05-21 13:00,6.5,117.40,1.14,0.79,
2014-05-21 14:00,6.3,116.40,1.66,0.83,
2014-05-21 15:00,5.7,117.40,1.46,0.85,
2014-05-21 16:00,4.8,120.40,1.54,0.85,
2014-05-21 17:00,5.9,117.40,1.35,0.86,
2014-05-21 18:00,5.9,119.40,1.66,0.89,
2014-05-21 19:00,5.7,124.40,1.29,0.87,
2014-05-21 20:00,6.1,125.40,1.28,0.84,
2014-05-21 21:00,5.9,120.40,1.24,0.82,
2014-05-21 22:00,5.4,128.40,1.24,0.79,
2014-05-21 23:00,6.1,119.40,1.24,0.75,
2014-05-22 00:00,5.6,123.40,1.24,0.84,
2014-05-22 01:00,5.6,121.40,1.44,0.85,
2014-05-22 02:00,5.9,117.40,1.50,0.88,
2014-05-22 03:00,6.5,117.40,1.47,0.87,
2014-05-22 04:00,5.0,108.40,1.65,1.03,
2014-05-22 05:00,5.7,109.40,1.52,0.95,
2014-05-22 06:00,5.9,114.40,1.52,0.95,
2014-05-22 07:00,5.3,117.40,1.74,1.00,
2014-05-22 08:00,4.5,112.40,1.32,0.96,
2014-05-22 09:00,5.4,115.40,1.60,1.02,
2014-05-22 10:00,5.9,118.40,1.66,1.00,
2014-05-22 11:00,5.7,111.40,1.54,1.00,
2014-05-22 12:00,5.7,114.40,1.74,1.05,
2014-05-22 13:00,6.1,112.40,1.50,0.96,
2014-05-22 14:00,5.9,115.40,1.65,0.98,
2014-05-22 15:00,5.7,118.40,1.42,0.96,
2014-05-22 16:00,5.7,115.40,1.79,0.98,
2014-05-22 17:00,5.4,114.40,1.70,1.03,
2014-05-22 18:00,5.4,118.40,1.76,1.03,
2014-05-22 19:00,5.7,115.40,1.59,0.97,
2014-05-22 20:00,5.4,116.40,1.56,1.01,
2014-05-22 21:00,5.7,112.40,1.65,1.01,
2014-05-22 22:00,5.6,114.40,1.63,1.04,
2014-05-22 23:00,5.4,108.40,1.74,1.10,
2014-05-23 00:00,5.6,109.40,1.77,1.17,
2014-05-23 01:00,6.3,106.40,2.24,1.26,
2014-05-23 02:00,6.3,104.40,1.88,1.27,
2014-05-23 03:00,5.9,106.40,2.66,1.21,
2014-05-23 04:00,6.3,105.40,1.90,1.23,
2014-05-23 05:00,5.7,103.40,2.06,1.12,
2014-05-23 06:00,5.9,109.40,1.90,1.23,
2014-05-23 07:00,5.9,111.40,2.41,1.22,
2014-05-23 08:00,6.1,113.40,2.00,1.23,
2014-05-23 09:00,6.1,113.40,2.14,1.26,
2014-05-23 10:00,6.9,111.40,2.22,1.37,
2014-05-23 11:00,5.9,108.40,2.33,1.44,
2014-05-23 12:00,5.7,110.40,2.19,1.44,
2014-05-23 13:00,6.1,110.40,2.32,1.44,
2014-05-23 14:00,6.7,106.40,2.42,1.52,
2014-05-23 15:00,7.1,107.40,2.24,1.44,
2014-05-23 16:00,6.1,102.40,3.11,1.39,
2014-05-23 17:00,6.1,107.40,2.18,1.46,
2014-05-23 18:00,6.5,109.40,2.53,1.52,
2014-05-23 19:00,6.5,110.40,2.31,1.50,
2014-05-23 20:00,6.3,108.40,2.55,1.40,
2014-05-23 21:00,6.9,110.40,2.36,1.37,
2014-05-23 22:00,6.5,114.40,1.97,1.35,
2014-05-23 23:00,6.7,103.40,2.28,1.33,
2014-05-24 00:00,6.5,101.40,2.24,1.38,
2014-05-24 01:00,6.1,100.40,2.05,1.26,
2014-05-24 02:00,6.3,103.40,2.27,1.28,
2014-05-24 03:00,5.9,101.40,2.30,1.24,
2014-05-24 04:00,6.3,101.40,2.11,1.29,
2014-05-24 05:00,6.3,100.40,2.41,1.42,
2014-05-24 06:00,5.7,101.40,2.17,1.25,
2014-05-24 07:00,5.9,98.40,1.75,1.24,
2014-05-24 08:00,5.6,103.40,2.19,1.35,
2014-05-24 09:00,6.1,100.40,2.36,1.39,
2014-05-24 10:00,5.9,102.40,2.61,1.42,
2014-05-24 11:00,6.1,106.40,2.25,1.36,
2014-05-24 12:00,6.3,106.40,2.12,1.30,
2014-05-24 13:00,6.3,104.40,2.30,1.20,
2014-05-24 14:00,6.7,109.40,2.02,1.23,
2014-05-24 15:00,6.3,108.40,2.14,1.19,
2014-05-24 16:00,5.9,111.40,2.13,1.19,
2014-05-24 17:00,6.3,114.40,1.91,1.15,
2014-05-24 18:00,6.1,113.40,1.84,1.16,
2014-05-24 19:00,5.9,113.40,1.74,1.11,
2014-05-24 20:00,5.9,110.40,1.77,1.04,
2014-05-24 21:00,5.9,111.40,1.56,1.06,
2014-05-24 22:00,6.3,114.40,1.79,1.02,
2014-05-24 23:00,6.1,108.40,1.59,1.00,
2014-05-25 00:00,6.9,102.40,1.60,0.99,
2014-05-25 01:00,6.7,105.40,1.59,1.13,
2014-05-25 02:00,6.3,102.40,1.63,1.08,
2014-05-25 03:00,8.0,103.40,1.56,1.04,
2014-05-25 04:00,5.6,102.40,1.61,1.05,
2014-05-25 05:00,8.0,98.40,1.58,1.15,
2014-05-25 06:00,5.4,101.40,1.82,1.13,
2014-05-25 07:00,5.4,100.40,1.79,1.19,
2014-05-25 08:00,5.1,97.40,1.90,1.09,
2014-05-25 09:00,5.1,103.40,1.63,1.08,
2014-05-25 10:00,5.6,101.40,1.94,1.11,
2014-05-25 11:00,7.4,100.40,1.54,1.16,
2014-05-25 12:00,8.0,98.40,1.87,1.26,
2014-05-25 13:00,5.1,96.40,1.77,1.16,
2014-05-25 14:00,5.7,99.40,2.00,1.16,
2014-05-25 15:00,5.6,103.40,2.01,1.25,
2014-05-25 16:00,5.9,103.40,1.81,1.13,
2014-05-25 17:00,5.6,105.40,1.90,1.08,
2014-05-25 18:00,5.7,106.40,2.02,1.11,
2014-05-25 19:00,5.9,112.40,2.01,1.08,
2014-05-25 20:00,5.9,111.40,1.83,1.07,
2014-05-25 21:00,8.0,106.40,2.06,1.13,
2014-05-25 22:00,5.9,104.40,1.48,1.03,
2014-05-25 23:00,7.1,100.40,1.79,1.04,
2014-05-26 00:00,5.9,102.40,1.89,1.14,
2014-05-26 01:00,8.3,100.40,2.22,1.08,
2014-05-26 02:00,8.3,103.40,2.00,1.08,
2014-05-26 03:00,5.6,98.40,1.93,1.15,
2014-05-26 04:00,6.1,101.40,1.76,1.06,
2014-05-26 05:00,5.9,104.40,1.58,1.04,
2014-05-26 06:00,5.9,100.40,1.68,1.07,
2014-05-26 07:00,6.1,100.40,1.59,1.05,
2014-05-26 08:00,5.6,98.40,1.68,1.01,
2014-05-26 09:00,5.7,103.40,1.67,1.07,
2014-05-26 10:00,8.3,100.40,1.82,1.05,
2014-05-26 11:00,5.9,100.40,1.92,1.18,
2014-05-26 12:00,5.6,103.40,1.76,1.19,
2014-05-26 13:00,5.3,100.40,2.20,1.30,
2014-05-26 14:00,5.4,99.40,1.65,1.16,
2014-05-26 15:00,5.9,103.40,2.40,1.28,
2014-05-26 16:00,5.7,99.40,2.02,1.14,
2014-05-26 17:00,5.7,101.40,1.96,1.13,
2014-05-26 18:00,5.1,101.40,2.17,1.13,
2014-05-26 19:00,8.0,103.40,1.92,1.12,
2014-05-26 20:00,5.7,107.40,1.61,1.08,
2014-05-26 21:00,5.9,106.40,1.53,1.04,
2014-05-26 22:00,5.4,108.40,1.85,0.99,
2014-05-26 23:00,5.1,109.40,1.52,1.05,
2014-05-27 00:00,5.3,104.40,1.59,1.00,
2014-05-27 01:00,8.0,99.40,1.69,1.01,
2014-05-27 02:00,6.3,104.40,1.58,1.01,
2014-05-27 03:00,5.6,101.40,1.87,1.05,
2014-05-27 04:00,8.3,102.40,1.72,1.05,
2014-05-27 05:00,5.3,99.40,1.53,1.04,
2014-05-27 06:00,5.4,102.40,1.52,1.03,
2014-05-27 07:00,5.6,99.40,1.87,1.12,
2014-05-27 08:00,5.0,106.40,1.63,1.09,
2014-05-27 09:00,5.7,102.40,1.55,1.05,
2014-05-27 10:00,6.1,106.40,1.92,1.08,
2014-05-27 11:00,5.3,107.40,1.79,1.06,
2014-05-27 12:00,5.6,99.40,1.87,1.09,
2014-05-27 13:00,5.6,95.40,1.83,1.10,
2014-05-27 14:00,6.1,101.40,1.74,1.10,
2014-05-27 15:00,5.7,100.40,1.99,1.08,
2014-05-27 16:00,5.7,101.40,2.05,1.15,
2014-05-27 17:00,5.3,99.40,1.55,1.07,
2014-05-27 18:00,5.6,100.40,1.92,1.08,
2014-05-27 19:00,5.9,101.40,1.90,1.16,
2014-05-27 20:00,5.3,102.40,1.81,1.17,
2014-05-27 21:00,5.6,98.40,1.72,1.10,
2014-05-27 22:00,5.4,100.40,1.94,1.20,
2014-05-27 23:00,5.9,100.40,1.62,1.12,
2014-05-28 00:00,5.4,102.40,1.58,1.03,
2014-05-28 01:00,5.9,102.40,1.69,1.07,
2014-05-28 02:00,5.6,99.40,2.12,1.10,
2014-05-28 03:00,5.7,101.40,1.76,1.03,
2014-05-28 04:00,5.4,103.40,1.80,0.98,
2014-05-28 05:00,5.3,104.40,1.75,1.01,
2014-05-28 06:00,5.6,105.40,1.49,0.97,
2014-05-28 07:00,5.6,104.40,1.62,0.93,
2014-05-28 08:00,5.6,102.40,1.60,1.06,
2014-05-28 09:00,5.1,102.40,1.62,1.05,
2014-05-28 10:00,5.3,105.40,1.62,1.07,
2014-05-28 11:00,5.7,104.40,1.61,1.05,
2014-05-28 12:00,5.6,100.40,2.31,1.11,
2014-05-28 13:00,5.4,104.40,2.40,1.03,
2014-05-28 14:00,5.4,103.40,1.93,1.13,
2014-05-28 15:00,5.3,103.40,1.58,1.11,
2014-05-28 16:00,5.4,106.40,1.59,1.10,
2014-05-28 17:00,5.7,104.40,1.96,1.08,
2014-05-28 18:00,6.3,106.40,1.57,1.11,
2014-05-28 19:00,5.6,104.40,1.46,1.08,
2014-05-28 20:00,5.9,104.40,1.88,1.16,
2014-05-28 21:00,5.9,105.40,2.10,1.13,
2014-05-28 22:00,5.9,104.40,1.95,1.04,
2014-05-28 23:00,5.3,103.40,1.85,1.15,
2014-05-29 00:00,5.7,106.40,1.97,1.13,
2014-05-29 01:00,5.6,105.40,2.42,1.20,
2014-05-29 02:00,5.3,99.40,1.80,1.16,
2014-05-29 03:00,5.4,103.40,1.77,1.16,
2014-05-29 04:00,5.0,106.40,2.15,1.11,
2014-05-29 05:00,8.3,105.40,1.66,1.06,
2014-05-29 06:00,8.7,101.40,1.64,1.05,
2014-05-29 07:00,5.6,100.40,1.79,1.09,
2014-05-29 08:00,5.7,101.40,1.77,1.12,
2014-05-29 09:00,5.0,103.40,1.88,1.12,
2014-05-29 10:00,5.9,105.40,1.66,1.04,
2014-05-29 11:00,5.4,105.40,1.74,1.04,
2014-05-29 12:00,5.4,109.40,1.67,1.08,
2014-05-29 13:00,5.7,111.40,1.50,1.00,
2014-05-29 14:00,5.7,108.40,1.64,1.04,
2014-05-29 15:00,5.3,109.40,1.75,1.03,
2014-05-29 16:00,5.0,106.40,1.84,1.10,
2014-05-29 17:00,8.3,105.40,1.85,1.12,
2014-05-29 18:00,5.4,107.40,1.62,1.06,
2014-05-29 19:00,5.7,105.40,1.67,1.03,
2014-05-29 20:00,5.7,106.40,1.82,0.95,
2014-05-29 21:00,5.4,101.40,1.54,0.97,
2014-05-29 22:00,5.0,102.40,1.79,1.00,
2014-05-29 23:00,5.9,106.40,2.06,1.14,
2014-05-30 00:00,5.4,102.40,1.60,1.03,
2014-05-30 01:00,6.1,107.40,1.87,1.19,
2014-05-30 02:00,5.7,109.40,1.71,1.11,
2014-05-30 03:00,5.3,103.40,1.83,1.10,
2014-05-30 04:00,5.4,105.40,1.75,1.17,
2014-05-30 05:00,5.6,105.40,1.70,1.06,
2014-05-30 06:00,5.4,102.40,1.95,1.09,
2014-05-30 07:00,5.3,101.40,1.68,1.08,
2014-05-30 08:00,5.3,101.40,2.22,1.16,
2014-05-30 09:00,5.1,104.40,2.21,1.14,
2014-05-30 10:00,5.6,103.40,1.72,1.13,
2014-05-30 11:00,5.3,100.40,1.72,1.12,
2014-05-30 12:00,4.9,100.40,1.85,1.16,
2014-05-30 13:00,5.1,104.40,2.18,1.21,
2014-05-30 14:00,5.7,103.40,1.78,1.15,
2014-05-30 15:00,5.3,107.40,1.89,1.24,
2014-05-30 16:00,5.3,105.40,2.08,1.30,
2014-05-30 17:00,5.3,105.40,2.05,1.25,
2014-05-30 18:00,5.7,106.40,1.93,1.16,
2014-05-30 19:00,5.7,105.40,1.86,1.09,
2014-05-30 20:00,5.4,103.40,1.99,1.20,
2014-05-30 21:00,5.4,101.40,2.01,1.20,
2014-05-30 22:00,5.6,102.40,1.87,1.11,
2014-05-30 23:00,5.4,109.40,1.95,1.19,
2014-05-31 00:00,6.1,102.40,1.76,1.16,
2014-05-31 01:00,6.3,106.40,2.47,1.19,
2014-05-31 02:00,5.3,108.40,2.14,1.28,
2014-05-31 03:00,6.1,104.40,2.16,1.25,
2014-05-31 04:00,5.9,109.40,2.15,1.22,
2014-05-31 05:00,5.7,109.40,2.24,1.31,
2014-05-31 06:00,5.7,102.40,2.54,1.23,
2014-05-31 07:00,5.7,107.40,2.43,1.29,
2014-05-31 08:00,5.9,103.40,3.44,1.24,
2014-05-31 09:00,5.7,102.40,2.05,1.32,
2014-05-31 10:00,5.7,99.40,1.97,1.27,
2014-05-31 11:00,5.6,105.40,1.96,1.32,
2014-05-31 12:00,5.9,107.40,1.92,1.27,
2014-05-31 13:00,6.3,107.40,2.09,1.28,
2014-05-31 14:00,5.7,108.40,1.96,1.14,
2014-05-31 15:00,5.7,108.40,1.99,1.12,
2014-05-31 16:00,5.6,106.40,2.60,1.15,
2014-05-31 17:00,5.6,109.40,1.93,1.15,
2014-05-31 18:00,5.9,110.40,2.01,1.08,
2014-05-31 19:00,5.6,106.40,1.83,1.10,
2014-05-31 20:00,5.9,106.40,1.66,1.05,
2014-05-31 21:00,5.1,107.40,2.00,1.03,
2014-05-31 22:00,5.1,104.40,1.61,1.08,
2014-05-31 23:00,5.4,109.40,1.75,1.03,
2014-06-01 00:00,5.3,111.40,1.68,0.99,
2014-06-01 01:00,5.1,108.40,1.54,1.01,
2014-06-01 02:00,5.1,106.40,1.81,1.01,
2014-06-01 03:00,5.4,106.40,1.46,1.01,
2014-06-01 04:00,5.6,110.40,1.78,1.05,
2014-06-01 05:00,5.4,109.40,1.59,1.07,
2014-06-01 06:00,5.3,108.40,1.67,1.07,
2014-06-01 07:00,6.1,112.40,1.84,1.09,
2014-06-01 08:00,4.7,110.40,1.91,1.16,
2014-06-01 09:00,4.9,110.40,2.06,1.15,
2014-06-01 10:00,5.0,109.40,1.83,1.14,
2014-06-01 11:00,5.7,112.40,2.12,1.14,
2014-06-01 12:00,5.6,111.40,1.82,1.20,
2014-06-01 13:00,6.1,116.40,1.79,1.12,
2014-06-01 14:00,5.6,114.40,1.91,1.19,
2014-06-01 15:00,5.9,119.40,2.31,1.16,
2014-06-01 16:00,6.1,115.40,1.92,1.15,
2014-06-01 17:00,6.9,117.40,1.99,1.20,
2014-06-01 18:00,6.3,123.40,2.05,1.15,
2014-06-01 19:00,6.1,120.40,1.87,1.18,
2014-06-01 20:00,5.9,119.40,1.64,1.08,
2014-06-01 21:00,6.5,121.40,1.72,1.07,
2014-06-01 22:00,6.7,120.40,1.75,1.04,
2014-06-01 23:00,6.1,119.40,1.67,1.08,
2014-06-02 00:00,6.5,121.40,1.73,0.98,
2014-06-02 01:00,5.7,121.40,1.61,1.01,
2014-06-02 02:00,6.9,115.40,1.44,0.98,
2014-06-02 03:00,6.1,118.40,1.62,0.99,
2014-06-02 04:00,6.5,118.40,1.68,1.01,
2014-06-02 05:00,8.7,109.40,1.68,0.97,
2014-06-02 06:00,5.7,111.40,1.75,0.99,
2014-06-02 07:00,6.3,115.40,1.47,0.91,
2014-06-02 08:00,5.9,110.40,1.51,0.91,
2014-06-02 09:00,5.7,113.40,1.45,0.92,
2014-06-02 10:00,6.5,110.40,1.52,0.88,
2014-06-02 11:00,6.3,114.40,1.44,0.89,
2014-06-02 12:00,5.6,117.40,1.44,0.91,
2014-06-02 13:00,6.3,118.40,1.50,0.95,
2014-06-02 14:00,5.4,120.40,1.49,0.94,
2014-06-02 15:00,8.7,123.40,1.50,0.92,
2014-06-02 16:00,6.1,121.40,1.50,0.92,
2014-06-02 17:00,5.7,123.40,1.41,0.95,
2014-06-02 18:00,8.3,118.40,1.65,0.97,
2014-06-02 19:00,8.3,123.40,1.55,0.96,
2014-06-02 20:00,7.1,121.40,1.62,0.98,
2014-06-02 21:00,5.7,121.40,1.73,0.92,
2014-06-02 22:00,5.6,123.40,1.68,0.90,
2014-06-02 23:00,6.7,119.40,1.61,0.94,
2014-06-03 00:00,6.7,117.40,1.24,0.78,
2014-06-03 01:00,5.4,119.40,1.51,0.89,
2014-06-03 02:00,6.9,120.40,1.41,0.84,
2014-06-03 03:00,6.3,124.40,1.41,0.86,
2014-06-03 04:00,5.7,124.40,1.24,0.80,
2014-06-03 05:00,6.9,122.40,1.32,0.76,
2014-06-03 06:00,8.7,121.40,1.38,0.79,
2014-06-03 07:00,8.7,114.40,1.31,0.78,
2014-06-03 08:00,8.7,112.40,1.23,0.73,
2014-06-03 09:00,6.9,115.40,1.31,0.74,
2014-06-03 10:00,7.4,113.40,1.26,0.74,
2014-06-03 11:00,6.5,111.40,1.23,0.73,
2014-06-03 12:00,8.3,109.40,1.19,0.70,
2014-06-03 13:00,9.1,110.40,1.25,0.73,
2014-06-03 14:00,8.3,108.40,1.16,0.74,
2014-06-03 15:00,8.7,111.40,1.32,0.74,
2014-06-03 16:00,8.3,116.40,1.39,0.78,
2014-06-03 17:00,8.7,112.40,1.64,0.79,